Location: Lombray
(49.5154°N, 3.1089°E)
Time: 20:56:06
(UTC+00:00)

Cosmos 1302 Rocket - Pass Details

Date: 15 May 2026
Orbit: 752 x 772 km, 74.0° (Epoch: 8 June)

Event Time Altitude Azimuth Distance (km) Brightness Sun altitude
Rises 20:10:11 0° 205° (SSW) 3,190 7.1 -6.8°
Reaches altitude 10° 20:12:32 10° 206° (SSW) 2,271 6.3 -7.0°
Maximum altitude 20:17:41 80° 294° (WNW) 773 4.2 -7.7°
Drops below altitude 10° 20:22:54 10° 22° (NNE) 2,296 6.8 -8.3°
Sets 20:25:17 0° 24° (NNE) 3,229 7.5 -8.6°
